Location: Chippewa Lake
(41.0698°N, 81.9010°W)
Time: 21:53:57
(UTC+00:00)

SL-24 DEB - Pass Details

Date: 09 May 2021
Orbit: 667 x 697 km, 92.0° (Epoch: 16 June)

Event Time Altitude Azimuth Distance (km) Brightness Sun altitude
Exits shadow 03:27:16 59° 48° (NE) 773 4.5 -25.6°
Drops below altitude 10° 03:31:20 10° 2° (N) 2,101 7.5 -26.0°
Sets 03:33:36 0° 359° (N) 3,020 8.5 -26.2°
